Date String (YYYY-MM-DD hh:mm:ss) UTC,Instrument flags,absolute air pressure of the measurement (hPa),sample flow rate (lpm),inlet stack bypass flow (lpm),air temperature of the measurement (°C),ambient temperature measured by the external sensor (°C),aerosol sample conditioner tube jacket temperature (°C),OPC LED temperature (°C),internal box temperature (°C),relative humidity of the measurement (%),span deviation,mass concentration of particles derived from Lorenz-Mie calculation of OPC scattering (μg/m³),mass concentration of particles derived from Lorenz-Mie calculation of OPC scattering (μg/m³),mass concentration of particles derived from Lorenz-Mie calculation of OPC scattering (μg/m³)
DateTimeUTC,F1_M11,P_M11,Q1_M11,Q2_M11,T1_M11,T2_M11,T3_M11,T4_M11,T5_M11,U1_M11,ZSPAN_M11,X0_M11,X2_M11,X1_M11
2024-01-01 19:00:00,SystemResetWarning,0830.6,5.00,000.00,023.3,022.8,000.0,031.4,024.9,14.8,0000.0,0008.00,0003.25,0003.08
2024-01-01 19:01:00,SystemResetWarning,0830.6,5.00,000.00,023.4,022.8,000.0,031.5,024.9,14.8,0000.0,0007.68,0003.30,0003.14
2024-01-01 19:02:00,SystemResetWarning,0830.5,5.00,000.00,023.4,022.8,000.0,031.5,024.9,14.7,0000.0,0007.65,0003.37,0003.20
2024-01-01 19:03:00,SystemResetWarning,0830.5,4.99,000.00,023.4,022.9,000.0,031.5,024.9,14.7,0000.0,0008.39,0003.46,0003.26
2024-01-01 19:04:00,SystemResetWarning,0830.7,5.00,000.00,023.4,022.9,000.0,031.5,025.0,14.7,0000.0,0008.66,0003.53,0003.32
2024-01-01 19:05:00,SystemResetWarning,0830.5,4.99,000.00,023.4,022.9,000.0,031.5,025.0,14.8,0000.0,0008.69,0003.62,0003.38
2024-01-01 19:06:00,SystemResetWarning,0830.5,5.00,000.00,023.4,022.9,000.0,031.5,025.0,14.7,0000.0,0008.68,0003.69,0003.43
2024-01-01 19:07:00,SystemResetWarning,0830.6,5.00,000.00,023.5,022.9,000.0,031.6,025.0,14.7,0000.0,0008.71,0003.74,0003.46
2024-01-01 19:08:00,SystemResetWarning,0830.4,5.00,000.00,023.5,022.9,000.0,031.6,025.0,14.8,0000.0,0008.87,0003.75,0003.46
2024-01-01 19:09:00,SystemResetWarning,0830.5,5.01,000.00,023.5,023.0,000.0,031.6,025.0,14.7,0000.0,0009.00,0003.75,0003.46
2024-01-01 19:10:00,SystemResetWarning,0830.6,5.00,000.00,023.5,023.0,000.0,031.6,025.0,14.7,0000.0,0008.99,0003.78,0003.48
2024-01-01 19:11:00,SystemResetWarning,0830.4,5.00,000.00,023.5,023.0,000.0,031.6,025.0,14.5,0000.0,0009.64,0003.85,0003.52
2024-01-01 19:12:00,SystemResetWarning,0830.4,5.00,000.00,023.5,023.0,000.0,031.7,025.0,14.4,0000.0,0009.64,0003.89,0003.55
2024-01-01 19:13:00,SystemResetWarning,0830.5,4.99,000.00,023.6,023.0,000.0,031.7,025.1,14.5,0000.0,0009.57,0003.93,0003.57
2024-01-01 19:14:00,SystemResetWarning,0830.4,5.00,000.00,023.6,023.1,000.0,031.7,025.1,14.5,0000.0,0008.73,0003.92,0003.56
2024-01-01 19:15:00,SystemResetWarning,0830.4,5.00,000.00,023.6,023.1,000.0,031.7,025.1,14.4,0000.0,0008.61,0003.89,0003.53
2024-01-01 19:16:00,SystemResetWarning,0830.4,5.00,000.00,023.6,023.1,000.0,031.7,025.1,14.3,0000.0,0009.07,0003.84,0003.49
2024-01-01 19:17:00,SystemResetWarning,0830.4,5.01,000.00,023.6,023.1,000.0,031.8,025.1,14.4,0000.0,0009.17,0003.83,0003.48
2024-01-01 19:18:00,SystemResetWarning,0830.4,5.01,000.00,023.7,023.1,000.0,031.8,025.2,14.5,0000.0,0009.11,0003.81,0003.49
2024-01-01 19:19:00,SystemResetWarning,0830.3,5.00,000.00,023.7,023.1,000.0,031.8,025.2,14.3,0000.0,0008.96,0003.85,0003.52
2024-01-01 19:20:00,SystemResetWarning,0830.3,5.00,000.00,023.7,023.2,000.0,031.8,025.2,14.2,0000.0,0009.01,0003.89,0003.56
2024-01-01 19:21:00,SystemResetWarning,0830.3,5.00,000.00,023.7,023.2,000.0,031.8,025.2,14.3,0000.0,0008.92,0003.92,0003.60
2024-01-01 19:22:00,SystemResetWarning,0830.3,4.99,000.00,023.7,023.2,000.0,031.9,025.3,14.4,0000.0,0008.23,0003.87,0003.57
2024-01-01 19:23:00,SystemResetWarning,0830.3,4.99,000.00,023.8,023.2,000.0,031.9,025.3,14.3,0000.0,0008.46,0003.81,0003.52
2024-01-01 19:24:00,SystemResetWarning,0830.3,5.00,000.00,023.8,023.2,000.0,031.9,025.3,14.0,0000.0,0008.33,0003.77,0003.48
2024-01-01 19:25:00,SystemResetWarning,0830.3,5.01,000.00,023.8,023.3,000.0,031.9,025.3,14.0,0000.0,0008.22,0003.74,0003.48
2024-01-01 19:26:00,SystemResetWarning,0830.3,4.98,000.00,023.8,023.3,000.0,031.9,025.3,14.0,0000.0,0008.07,0003.77,0003.50
2024-01-01 19:27:00,SystemResetWarning,0830.2,4.99,000.00,023.8,023.3,000.0,032.0,025.4,13.8,0000.0,0008.01,0003.78,0003.50
2024-01-01 19:28:00,SystemResetWarning,0830.2,5.01,000.00,023.8,023.3,000.0,032.0,025.4,13.9,0000.0,0007.81,0003.76,0003.49
2024-01-01 19:29:00,SystemResetWarning,0830.2,5.00,000.00,023.9,023.3,000.0,032.0,025.4,14.0,0000.0,0008.04,0003.79,0003.51
2024-01-01 19:30:00,SystemResetWarning,0830.3,5.00,000.00,023.9,023.3,000.0,032.0,025.4,13.9,0000.0,0008.20,0003.79,0003.52
2024-01-01 19:31:00,SystemResetWarning,0830.2,5.00,000.00,023.9,023.4,000.0,032.0,025.4,13.9,0000.0,0008.01,0003.78,0003.51
2024-01-01 19:32:00,SystemResetWarning,0830.2,5.00,000.00,023.9,023.4,000.0,032.0,025.4,13.6,0000.0,0007.91,0003.79,0003.51
2024-01-01 19:33:00,SystemResetWarning,0830.2,5.00,000.00,023.9,023.4,000.0,032.1,025.5,13.7,0000.0,0007.60,0003.86,0003.56
2024-01-01 19:34:00,SystemResetWarning,0830.1,4.99,000.00,023.9,023.4,000.0,032.1,025.5,13.8,0000.0,0007.58,0003.96,0003.65
2024-01-01 19:35:00,SystemResetWarning,0830.1,5.01,000.00,024.0,023.4,000.0,032.1,025.5,13.6,0000.0,0008.48,0004.05,0003.73
2024-01-01 19:36:00,SystemResetWarning,0830.1,5.00,000.00,024.0,023.4,000.0,032.1,025.5,13.9,0000.0,0008.55,0004.08,0003.77
2024-01-01 19:37:00,SystemResetWarning,0830.1,5.01,000.00,024.0,023.5,000.0,032.1,025.5,13.7,0000.0,0008.49,0004.12,0003.80
2024-01-01 19:38:00,SystemResetWarning,0830.0,4.99,000.00,024.0,023.5,000.0,032.1,025.5,13.7,0000.0,0008.17,0004.16,0003.84
2024-01-01 19:39:00,SystemResetWarning,0830.1,5.00,000.00,024.0,023.5,000.0,032.2,025.5,13.8,0000.0,0008.26,0004.22,0003.88
2024-01-01 19:40:00,SystemResetWarning,0830.0,4.99,000.00,024.0,023.5,000.0,032.2,025.5,13.6,0000.0,0008.15,0004.21,0003.90
2024-01-01 19:41:00,SystemResetWarning,0830.0,5.01,000.00,024.1,023.5,000.0,032.2,025.5,13.7,0000.0,0007.94,0004.19,0003.90
2024-01-01 19:42:00,SystemResetWarning,0830.0,5.01,000.00,024.1,023.5,000.0,032.2,025.6,13.7,0000.0,0007.94,0004.23,0003.94
2024-01-01 19:43:00,SystemResetWarning,0830.0,5.00,000.00,024.1,023.5,000.0,032.2,025.6,13.9,0000.0,0007.97,0004.25,0003.97
2024-01-01 19:44:00,SystemResetWarning,0830.0,5.00,000.00,024.1,023.6,000.0,032.3,025.6,13.8,0000.0,0007.96,0004.25,0003.98
2024-01-01 19:45:00,SystemResetWarning,0830.0,5.00,000.00,024.1,023.6,000.0,032.3,025.6,13.7,0000.0,0007.88,0004.27,0004.01
2024-01-01 19:46:00,SystemResetWarning,0829.9,5.00,000.00,024.1,023.6,000.0,032.3,025.6,13.8,0000.0,0007.83,0004.29,0004.03
2024-01-01 19:47:00,SystemResetWarning,0829.9,4.99,000.00,024.2,023.6,000.0,032.3,025.6,13.6,0000.0,0007.66,0004.30,0004.05
2024-01-01 19:48:00,SystemResetWarning,0830.0,5.00,000.00,024.2,023.6,000.0,032.3,025.6,13.4,0000.0,0007.64,0004.31,0004.07
2024-01-01 19:49:00,SystemResetWarning,0829.9,5.01,000.00,024.2,023.6,000.0,032.3,025.7,13.4,0000.0,0007.60,0004.33,0004.11
2024-01-01 19:50:00,SystemResetWarning,0829.9,5.00,000.00,024.2,023.6,000.0,032.4,025.7,13.3,0000.0,0007.67,0004.38,0004.16
2024-01-01 19:51:00,SystemResetWarning,0829.9,4.99,000.00,024.2,023.7,000.0,032.4,025.7,13.3,0000.0,0007.75,0004.42,0004.20
2024-01-01 19:52:00,SystemResetWarning,0829.8,5.00,000.00,024.2,023.7,000.0,032.4,025.7,13.4,0000.0,0007.83,0004.47,0004.24
2024-01-01 19:53:00,SystemResetWarning,0829.8,5.00,000.00,024.2,023.7,000.0,032.4,025.7,13.5,0000.0,0007.93,0004.51,0004.28
2024-01-01 19:54:00,SystemResetWarning,0829.8,5.00,000.00,024.3,023.7,000.0,032.4,025.7,13.5,0000.0,0008.00,0004.56,0004.33
2024-01-01 19:55:00,SystemResetWarning,0829.8,5.00,000.00,024.3,023.7,000.0,032.4,025.7,13.5,0000.0,0008.16,0004.66,0004.41
2024-01-01 19:56:00,SystemResetWarning,0829.8,5.00,000.00,024.3,023.7,000.0,032.4,025.8,13.4,0000.0,0008.31,0004.72,0004.45
2024-01-01 19:57:00,SystemResetWarning,0829.8,5.01,000.00,024.3,023.8,000.0,032.5,025.9,13.2,0000.0,0007.66,0004.75,0004.49
2024-01-01 19:58:00,SystemResetWarning,0829.8,5.01,000.00,024.3,023.8,000.0,032.5,025.9,13.3,0000.0,0007.62,0004.80,0004.54
2024-01-01 19:59:00,SystemResetWarning,0829.7,5.00,000.00,024.4,023.8,000.0,032.5,025.9,13.1,0000.0,0008.00,0004.81,0004.55
